Jordan, MT

2:50 PM MST on January 17, 2017 (GMT -0700)
Jordan

Weather History for KJDN - June, 2013

Change the Weather History Date:

Wednesday, June 12, 2013

  Actual Average Record
Temperature  
Mean Temperature 62 °F 61 °F  
Max Temperature 71 °F 76 °F 100 °F (1918)
Min Temperature 52 °F 47 °F 33 °F (1910)
Degree Days  
Heating Degree Days 3 5  
Month to date heating degree days 65 73  
Since 1 June heating degree days 65 73  
Since 1 July heating degree days 7671 8194  
Cooling Degree Days 0 1  
Month to date cooling degree days 4 11  
Year to date cooling degree days 16 17  
Since 1 June cooling degree days 4 11  
Growing Degree Days 12 (Base 50)    
Moisture  
Dew Point 55 °F    
Average Humidity 71    
Maximum Humidity 100    
Minimum Humidity 42    
Precipitation  
Precipitation 0.00 in 0.09 in 1.41 in (1976)
Month to date precipitation 2.20 1.07  
Year to date precipitation 9.16 5.44  
Snow  
Snow 0.00 in - - ()
Month to date snowfall 0.0  
Since 1 June snowfall 0.0  
Since 1 July snowfall 0.0  
Snow Depth 0.00 in    
Sea Level Pressure  
Sea Level Pressure 30.03 in    
Wind  
Wind Speed 11 mph (ESE)    
Max Wind Speed 21 mph    
Max Gust Speed 26 mph    
T = Trace of Precipitation, MM = Missing Value Source: NWS Daily Summary

Daily Weather History Graph

Daily Weather History Graph

Search for Another Location

Airport or City:

Trip Planner

Search our weather history database for the weather conditions in past years. The results will help you decide how hot, cold, wet, or windy it might be!

Date:

Astronomy

Jun. 12, 2013 Rise Set
Actual Time 5:10 AM MDT 9:04 PM MDT
Civil Twilight 4:30 AM MDT 9:44 PM MDT
Nautical Twilight 3:35 AM MDT 10:39 PM MDT
Astronomical Twilight 2:12 AM MDT 12:03 AM MDT
Moon 9:05 AM MDT (6/12) 11:27 PM MDT (6/12)
Length of Visible Light 17h 14m
Length of Day
15h 53m
Waxing Crescent, 14% of the Moon is Illuminated
Jun 12
Waxing Crescent
Jun 16
First Quarter
Jun 23
Full
Jun 29
Last Quarter
Jul 8
New

Hourly Weather History & Observations

Time (MDT) Temp. Dew Point Humidity Pressure Visibility Wind Dir Wind Speed Gust Speed Precip Events Conditions
12:48 AM 55.0 °F 54.0 °F 96% 29.98 in - NNW 8.1 mph - N/A   Unknown
1:48 AM 55.0 °F 54.0 °F 96% 30.00 in - NNE 6.9 mph - N/A   Unknown
2:48 AM 55.0 °F 54.0 °F 96% 30.02 in - North 6.9 mph - N/A   Unknown
3:48 AM 54.0 °F 53.1 °F 97% 30.02 in - NNE 6.9 mph - N/A   Unknown
4:48 AM 53.1 °F 51.1 °F 93% 30.06 in - North 5.8 mph - N/A   Unknown
5:48 AM 53.1 °F 51.1 °F 93% 30.07 in - North 6.9 mph - N/A   Unknown
6:48 AM 55.0 °F 53.1 °F 93% 30.08 in - NE 5.8 mph - N/A   Unknown
7:48 AM 57.0 °F 53.1 °F 87% 30.08 in - East 6.9 mph - N/A   Unknown
8:48 AM 57.9 °F 54.0 °F 87% 30.07 in - ESE 9.2 mph - N/A   Unknown
9:48 AM 61.0 °F 55.0 °F 81% 30.07 in - SE 8.1 mph - N/A   Unknown
10:48 AM 64.0 °F 55.9 °F 75% 30.06 in - SE 12.7 mph - N/A   Unknown
11:48 AM 64.9 °F 54.0 °F 68% 30.07 in - SE 16.1 mph - N/A   Unknown
12:48 PM 66.0 °F 54.0 °F 65% 30.06 in - SSE 18.4 mph 23.0 mph N/A   Unknown
1:48 PM 68.0 °F 55.9 °F 65% 30.04 in - SSE 15.0 mph 24.2 mph N/A   Unknown
2:48 PM 66.9 °F 55.0 °F 66% 30.03 in - SSE 18.4 mph 24.2 mph N/A   Unknown
3:48 PM 66.9 °F 57.0 °F 70% 30.02 in - SE 15.0 mph 23.0 mph N/A   Unknown
5:48 PM 69.1 °F 57.0 °F 65% 29.99 in - SE 17.3 mph 24.2 mph N/A   Unknown
6:48 PM 70.0 °F 57.0 °F 63% 29.98 in - SSE 18.4 mph 23.0 mph N/A   Unknown
7:48 PM 68.0 °F 57.0 °F 68% 29.99 in - SE 12.7 mph 23.0 mph N/A   Unknown
8:48 PM 64.9 °F 57.0 °F 75% 29.98 in - ESE 8.1 mph - N/A   Unknown
9:48 PM 63.0 °F 57.0 °F 81% 29.99 in - ESE 8.1 mph - N/A   Unknown
10:48 PM 62.1 °F 55.9 °F 80% 29.99 in - East 11.5 mph - N/A   Unknown
11:48 PM 61.0 °F 55.9 °F 83% 29.99 in - East 8.1 mph - N/A   Unknown